Weather History for Idaho Falls, ID

Change the Weather History Date:

Thursday, December 5, 2013

  Actual Average Record
Temperature  
Mean Temperature 1 °F 23 °F  
Max Temperature 10 °F 32 °F 49 °F (1965)
Min Temperature -8 °F 14 °F -31 °F (1972)
Degree Days  
Heating Degree Days 64 42  
Month to date heating degree days 227 206  
Since 1 July heating degree days 1951 2109  
Cooling Degree Days 0 0  
Month to date cooling degree days 0 0  
Year to date cooling degree days 510 264  
Moisture  
Dew Point -4 °F    
Average Humidity 77    
Maximum Humidity 87    
Minimum Humidity 66    
Precipitation  
Precipitation T in 0.03 in 0.28 in (1966)
Month to date precipitation 0.09 0.16  
Year to date precipitation 6.26 9.68  
Sea Level Pressure  
Sea Level Pressure 30.25 in    
Wind  
Wind Speed 4 mph (North)    
Max Wind Speed 9 mph    
Max Gust Speed 11 mph    
Visibility 7 miles    
Events Snow    
T = Trace of Precipitation, MM = Missing Value Source: NWS Daily Summary

Daily Weather History Graph

Daily Weather History Graph

Search for Another Location

Airport:

Trip Planner

Search our weather history database for the weather conditions in past years. The results will help you decide how hot, cold, wet, or windy it might be!

Date:

Astronomy

Dec. 05, 2013 Rise Set
Actual Time 7:45 AM MST 4:52 PM MST
Civil Twilight 7:13 AM MST 5:24 PM MST
Nautical Twilight 6:37 AM MST 6:00 PM MST
Astronomical Twilight 6:03 AM MST 6:34 PM MST
Moon 10:06 AM MST (12/5) 8:20 PM MST (12/5)
Length of Visible Light 10h 10m
Length of Day
9h 06m
Waxing Crescent, 11% of the Moon is Illuminated
Dec 5
Waxing Crescent
Dec 9
First Quarter
Dec 17
Full
Dec 25
Last Quarter
Jan 1
New

Hourly Weather History & Observations

Time (MST) Temp. Windchill Dew Point Humidity Pressure Visibility Wind Dir Wind Speed Gust Speed Precip Events Conditions
12:53 AM -4.0 °F -14.6 °F -9.0 °F 79% 30.33 in 10.0 mi North 4.6 mph - N/A   Overcast
1:53 AM -2.0 °F -10.1 °F -7.1 °F 79% 30.31 in 10.0 mi North 3.5 mph - N/A   Overcast
2:53 AM -2.0 °F -16.6 °F -8.0 °F 76% 30.32 in 10.0 mi North 8.1 mph - N/A   Overcast
3:53 AM -2.0 °F -15.4 °F -7.1 °F 79% 30.30 in 10.0 mi North 6.9 mph - N/A   Overcast
4:53 AM -0.9 °F -14.1 °F -6.0 °F 79% 30.30 in 10.0 mi North 6.9 mph - N/A   Overcast
5:53 AM -2.0 °F -15.4 °F -8.0 °F 76% 30.30 in 10.0 mi North 6.9 mph - N/A   Overcast
6:53 AM -4.0 °F -16.3 °F -9.0 °F 79% 30.33 in 10.0 mi North 5.8 mph - N/A   Clear
7:53 AM -4.0 °F -16.3 °F -9.0 °F 79% 30.35 in 10.0 mi North 5.8 mph - N/A   Scattered Clouds
7:56 AM -4.0 °F -16.3 °F -9.0 °F 79% 30.04 in 10.0 mi North 5.8 mph - N/A   Overcast
8:53 AM -0.9 °F -14.1 °F -6.0 °F 79% 30.33 in 5.0 mi North 6.9 mph - 0.00 in Snow Light Snow
9:53 AM 1.9 °F -5.6 °F -2.9 °F 80% 30.35 in 4.0 mi NNW 3.5 mph - 0.00 in Snow Light Snow
10:23 AM 3.0 °F -6.4 °F -2.9 °F 76% 30.06 in 3.0 mi NNW 4.6 mph - 0.00 in Snow Light Snow
10:49 AM 3.2 °F -4.2 °F -2.2 °F 78% 30.06 in 4.0 mi NNW 3.5 mph - 0.00 in   Haze
10:53 AM 3.9 °F -3.4 °F -2.0 °F 76% 30.36 in 4.0 mi NW 3.5 mph - 0.00 in   Haze
11:53 AM 6.1 °F -2.8 °F -0.0 °F 76% 30.33 in 6.0 mi NNW 4.6 mph - N/A   Haze
12:53 PM 7.0 °F 0.1 °F -0.0 °F 73% 30.30 in 6.0 mi North 3.5 mph - N/A   Haze
1:38 PM 8.1 °F - 1.0 °F 73% 30.01 in 2.0 mi Calm Calm - 0.00 in Snow Light Snow
1:40 PM 8.1 °F - 1.0 °F 73% 30.01 in 1.5 mi Calm Calm - 0.00 in   Haze
1:49 PM 6.8 °F -0.1 °F 1.4 °F 79% 30.01 in 2.0 mi NW 3.5 mph - 0.00 in   Haze
1:53 PM 7.0 °F -1.7 °F 1.0 °F 77% 30.28 in 2.5 mi NW 4.6 mph - 0.00 in   Haze
1:57 PM 7.0 °F 0.1 °F 1.0 °F 77% 30.01 in 3.0 mi NW 3.5 mph - N/A   Haze
2:53 PM 10.0 °F - 1.9 °F 70% 30.26 in 7.0 mi Calm Calm - N/A   Haze
3:53 PM 9.0 °F 2.4 °F 1.0 °F 70% 30.26 in 10.0 mi NNW 3.5 mph - N/A   Haze
4:53 PM 7.0 °F - -0.0 °F 73% 30.28 in 10.0 mi Calm Calm - N/A   Scattered Clouds
5:53 PM 1.9 °F -7.6 °F -2.0 °F 83% 30.31 in 10.0 mi North 4.6 mph - N/A   Clear
6:53 PM -0.0 °F -7.9 °F -4.0 °F 83% 30.33 in 10.0 mi North 3.5 mph - N/A   Clear
7:53 PM 1.9 °F -5.6 °F -2.0 °F 83% 30.33 in 10.0 mi NNE 3.5 mph - N/A   Clear
8:53 PM -0.9 °F -8.9 °F -6.0 °F 79% 30.33 in 10.0 mi North 3.5 mph - N/A   Clear
9:53 PM -0.9 °F -11.0 °F -5.1 °F 83% 30.32 in 9.0 mi North 4.6 mph - N/A   Mostly Cloudy
10:53 PM -2.9 °F -11.2 °F -8.0 °F 79% 30.32 in 10.0 mi North 3.5 mph - N/A   Mostly Cloudy
11:53 PM 1.0 °F -8.7 °F -2.9 °F 83% 30.31 in 7.0 mi North 4.6 mph - N/A   Overcast